This demonstration page uses our WeatherBlox Daily Observations layout. Learn more.

Left ArrowRight Arrow

Hourly Observations for June 3, 2017

Temp ( °F °C ) Dew Point ( °F °C ) Humidity (%) Winds ( mph kmh ) Pressure ( in mb ) Visibility ( mi km ) Precip ( " mm )
12:53 am 00:53 Clear 55 12.8 37 2.8 51 51 W 9 15 29.98 1015 10 16 0.00 0.00
1:53 am 01:53 Clear 53 11.7 37 2.8 55 55 SW 8 13 30.00 1016 10 16 0.00 0.00
2:53 am 02:53 Clear 48 8.9 37 2.8 66 66 WSW 3 6 30.03 1017 10 16 0.00 0.00
3:53 am 03:53 Clear 45 7.2 36 2.2 71 71 Calm 30.05 1018 10 16 0.00 0.00
4:53 am 04:53 Clear 45 7.2 36 2.2 71 71 VRB 3 6 30.05 1018 10 16 0.00 0.00
5:53 am 05:53 Sunny 43 6.1 36 2.2 76 76 SW 9 15 30.06 1018 10 16 0.00 0.00
6:53 am 06:53 Sunny 50 10 39 3.9 66 66 SW 10 17 30.07 1018 10 16 0.00 0.00
7:53 am 07:53 Sunny 58 14.4 42 5.6 56 56 WSW 10 17 30.06 1018 10 16 0.00 0.00
8:53 am 08:53 Sunny 65 18.3 41 5 42 42 SW 10 17 30.04 1017 10 16 0.00 0.00
9:53 am 09:53 Sunny 71 21.7 39 3.9 31 31 WSW 6 9 30.03 1017 10 16 0.00 0.00
10:53 am 10:53 Sunny 74 23.3 37 2.8 26 26 Calm 30.00 1016 10 16 0.00 0.00
11:53 am 11:53 Sunny 77 25 34 1.1 21 21 E 5 7 29.98 1015 10 16 0.00 0.00
12:53 pm 12:53 Sunny 80 26.7 33 0.6 18 18 E 8 13 29.94 1014 10 16 0.00 0.00
1:53 pm 13:53 Sunny 82 27.8 31 -0.6 16 16 SSE 8 13 29.92 1013 10 16 0.00 0.00
2:53 pm 14:53 Sunny 83 28.3 26 -3.3 12 12 S 5 7 29.90 1013 10 16 0.00 0.00
3:53 pm 15:53 Sunny 86 30 32 0 14 14 SSW 10 17 29.88 1012 10 16 0.00 0.00
4:53 pm 16:53 Sunny 85 29.4 38 3.3 19 19 SSW 15 24 29.86 1011 10 16 0.00 0.00
5:53 pm 17:53 Sunny 86 30 40 4.4 20 20 SW 10 17 29.85 1011 10 16 0.00 0.00
6:53 pm 18:53 Sunny 85 29.4 42 5.6 22 22 S 10 17 29.84 1011 10 16 0.00 0.00
7:53 pm 19:53 Sunny 83 28.3 43 6.1 24 24 S 9 15 29.83 1010 10 16 0.00 0.00
8:53 pm 20:53 Sunny 76 24.4 47 8.3 36 36 S 8 13 29.83 1010 10 16 0.00 0.00
9:53 pm 21:53 Clear 68 20 48 8.9 49 49 S 8 13 29.84 1010 10 16 0.00 0.00
10:53 pm 22:53 Clear 67 19.4 46 7.8 47 47 Calm 29.83 1010 10 16 0.00 0.00
11:53 pm 23:53 Clear 66 18.9 46 7.8 49 49 S 3 6 29.83 1010 10 16 0.00 0.00

Powered by AerisWeather